QPF
0.02 0.02 0.02 0.02 0.02 0.01 0.01 0.01 0.02 0.02 0.01 0.01 0.01 0.01 0.02 0.02 0.03 0.03 0.04 0.04 0.03 0.02 0.02 0.01 0.01 0.01 0.01 0.02 0.02 0.03 0.03 0.02 0.03 0.03 0.03 0.03 0.03 0.03
0.02 0.02 0.02 0.02 0.02 0.01 0.01 0.01 0.01 0.01 0.01 0.01 0.01 0.02 0.03 0.03 0.03 0.03 0.04 0.05 0.04 0.02 0.01 0.01 0.01 0.01 0.01 0.01 0.02 0.02 0.03 0.02 0.03 0.03 0.03 0.03 0.03 0.02
0.02 0.02 0.02 0.02 0.02 0.01 0.01 0.01 0.01 0.01 0.01 0.01 0.01 0.01 0.03 0.04 0.04 0.03 0.02 0.02 0.03 0.02 0.01 0.01 0.01 0.01 0.01 0.01 0.01 0.02 0.02 0.02 0.02 0.02 0.02 0.02 0.02 0.02
0.03 0.03 0.02 0.02 0.02 0.01 0.01 0.01 0.01 0.01 0.01 0.01 0.01 0.02 0.02 0.03 0.03 0.03 0.02 0.02 0.01 0.01 0.01 0.01 0.00 0.00 0.00 0.01 0.01 0.01 0.02 0.03 0.03 0.03 0.04 0.03 0.03 0.03
0.03 0.02 0.02 0.02 0.02 0.02 0.02 0.02 0.02 0.02 0.02 0.02 0.02 0.02 0.02 0.02 0.02 0.02 0.02 0.01 0.01 0.00 0.00 0.00 0.01 0.01 0.01 0.01 0.01 0.01 0.02 0.02 0.02 0.03 0.03 0.03 0.03 0.03
0.03 0.02 0.02 0.02 0.02 0.02 0.02 0.02 0.02 0.02 0.03 0.03 0.03 0.02 0.02 0.02 0.01 0.02 0.02 0.01 0.01 0.01 0.01 0.01 0.01 0.02 0.02 0.02 0.02 0.02 0.02 0.02 0.02 0.02 0.02 0.02 0.02 0.02
0.04 0.03 0.03 0.03 0.03 0.03 0.03 0.03 0.03 0.03 0.03 0.03 0.02 0.02 0.02 0.02 0.02 0.02 0.02 0.02 0.02 0.02 0.02 0.02 0.02 0.02 0.01 0.01 0.01 0.01 0.01 0.01 0.02 0.02 0.01 0.01 0.02 0.01
0.03 0.03 0.03 0.03 0.03 0.03 0.03 0.03 0.03 0.03 0.03 0.03 0.03 0.03 0.03 0.02 0.01 0.01 0.01 0.01 0.02 0.02 0.02 0.03 0.03 0.02 0.01 0.01 0.01 0.01 0.01 0.01 0.01 0.01 0.01 0.01 0.01 0.01
0.02 0.02 0.02 0.02 0.02 0.02 0.02 0.02 0.02 0.02 0.02 0.02 0.02 0.02 0.02 0.01 0.01 0.01 0.01 0.01 0.01 0.01 0.01 0.02 0.01 0.01 0.01 0.01 0.01 0.01 0.01 0.00 0.00 0.01 0.01 0.01 0.01 0.01
0.01 0.01 0.01 0.01 0.01 0.01 0.01 0.01 0.01 0.01 0.01 0.01 0.01 0.01 0.01 0.01 0.01 0.01 0.01 0.01 0.01 0.01 0.01 0.01 0.01 0.01 0.01 0.01 0.01 0.01 0.01 0.00 0.00 0.01 0.01 0.01 0.02 0.02
0.01 0.01 0.01 0.01 0.01 0.01 0.01 0.01 0.01 0.00 0.00 0.00 0.00 0.00 0.01 0.01 0.01 0.01 0.01 0.01 0.01 0.01 0.01 0.01 0.01 0.01 0.01 0.01 0.01 0.01 0.01 0.01 0.01 0.01 0.01 0.02 0.02 0.02
0.02 0.01 0.01 0.01 0.01 0.00 0.00 0.00 0.00 0.00 0.00 0.00 0.00 0.00 0.00 0.00 0.00 0.00 0.01 0.01 0.01 0.02 0.02 0.02 0.02 0.02 0.02 0.02 0.02 0.02 0.02 0.01 0.01 0.01 0.01 0.02 0.03 0.02
0.02 0.02 0.02 0.02 0.01 0.01 0.00 0.00 0.00 0.00 0.00 0.00 0.00 0.00 0.00 0.00 0.00 0.00 0.00 0.01 0.01 0.01 0.01 0.02 0.03 0.03 0.03 0.04 0.04 0.03 0.03 0.03 0.02 0.02 0.02 0.02 0.04 0.03
0.02 0.01 0.01 0.01 0.01 0.01 0.01 0.00 0.00 0.00 0.00 0.00 0.00 0.00 0.00 0.00 0.00 0.00 0.00 0.00 0.01 0.01 0.01 0.02 0.03 0.03 0.03 0.03 0.04 0.05 0.04 0.03 0.02 0.02 0.02 0.02 0.03 0.04
0.01 0.01 0.01 0.01 0.01 0.01 0.01 0.01 0.00 0.00 0.00 0.00 0.00 0.00 0.00 0.00 0.00 0.00 0.00 0.00 0.00 0.01 0.01 0.01 0.01 0.02 0.02 0.02 0.02 0.04 0.04 0.04 0.03 0.02 0.02 0.01 0.02 0.03
0.01 0.01 0.01 0.01 0.01 0.01 0.01 0.00 0.00 0.00 0.00 0.00 0.00 0.00 0.00 0.00 0.00 0.00 0.00 0.00 0.00 0.00 0.00 0.01 0.01 0.01 0.02 0.02 0.02 0.03 0.03 0.03 0.03 0.02 0.02 0.02 0.02 0.02
0.01 0.01 0.01 0.01 0.01 0.01 0.01 0.01 0.01 0.01 0.01 0.01 0.01 0.01 0.00 0.00 0.00 0.00 0.00 0.00 0.00 0.00 0.00 0.01 0.01 0.01 0.01 0.02 0.02 0.03 0.03 0.03 0.03 0.03 0.02 0.02 0.02 0.02
0.02 0.01 0.01 0.01 0.01 0.00 0.01 0.01 0.01 0.01 0.01 0.01 0.01 0.01 0.01 0.01 0.00 0.00 0.00 0.00 0.01 0.00 0.00 0.01 0.01 0.01 0.01 0.01 0.02 0.02 0.02 0.03 0.03 0.03 0.03 0.02 0.02 0.02
0.01 0.01 0.01 0.01 0.01 0.00 0.00 0.00 0.00 0.00 0.01 0.01 0.01 0.01 0.01 0.01 0.01 0.01 0.01 0.00 0.01 0.00 0.00 0.01 0.01 0.02 0.02 0.01 0.01 0.01 0.02 0.02 0.02 0.02 0.03 0.02 0.02 0.01
0.01 0.01 0.01 0.01 0.00 0.00 0.00 0.00 0.00 0.00 0.00 0.00 0.01 0.01 0.01 0.01 0.01 0.01 0.01 0.01 0.01 0.01 0.01 0.01 0.01 0.02 0.02 0.03 0.02 0.01 0.01 0.02 0.03 0.03 0.03 0.02 0.02 0.02
0.01 0.01 0.01 0.01 0.00 0.00 0.00 0.01 0.01 0.00 0.00 0.00 0.01 0.01 0.01 0.01 0.01 0.01 0.01 0.01 0.01 0.01 0.01 0.01 0.01 0.01 0.02 0.02 0.02 0.01 0.01 0.02 0.02 0.02 0.03 0.03 0.02 0.02
0.01 0.01 0.01 0.00 0.00 0.00 0.00 0.01 0.01 0.01 0.01 0.01 0.01 0.01 0.01 0.01 0.01 0.01 0.01 0.01 0.01 0.01 0.01 0.01 0.01 0.01 0.02 0.02 0.02 0.02 0.01 0.02 0.02 0.02 0.02 0.03 0.03 0.03
0.01 0.01 0.01 0.01 0.01 0.01 0.01 0.01 0.01 0.01 0.01 0.01 0.01 0.01 0.01 0.01 0.01 0.01 0.01 0.01 0.01 0.01 0.01 0.01 0.01 0.01 0.02 0.02 0.02 0.02 0.02 0.02 0.02 0.02 0.02 0.02 0.02 0.02
MSLP
1020.59 1021.16 1021.77 1022.44 1023.17 1023.97 1024.82 1025.70 1026.56 1027.38 1028.12 1028.75 1029.27 1029.68 1030.00 1030.27 1030.50 1030.73 1030.98 1031.27 1031.59 1031.94 1032.30 1032.65 1032.97 1033.24 1033.44 1033.56 1033.61 1033.57 1033.47 1033.31 1033.10 1032.84 1032.54 1032.19 1031.81 1031.37
1019.95 1020.49 1021.04 1021.65 1022.32 1023.08 1023.92 1024.82 1025.75 1026.67 1027.53 1028.32 1029.01 1029.58 1030.05 1030.44 1030.77 1031.06 1031.35 1031.65 1031.96 1032.29 1032.62 1032.94 1033.22 1033.46 1033.63 1033.73 1033.76 1033.72 1033.62 1033.46 1033.25 1033.00 1032.71 1032.36 1031.97 1031.53
1019.34 1019.86 1020.38 1020.94 1021.57 1022.29 1023.11 1024.01 1024.98 1025.96 1026.94 1027.85 1028.68 1029.41 1030.02 1030.53 1030.97 1031.34 1031.68 1031.99 1032.30 1032.61 1032.91 1033.19 1033.44 1033.63 1033.77 1033.85 1033.86 1033.81 1033.70 1033.55 1033.35 1033.10 1032.81 1032.47 1032.08 1031.63
1018.74 1019.28 1019.80 1020.34 1020.94 1021.63 1022.42 1023.31 1024.29 1025.32 1026.36 1027.36 1028.31 1029.15 1029.89 1030.52 1031.05 1031.50 1031.89 1032.24 1032.56 1032.86 1033.14 1033.39 1033.60 1033.76 1033.87 1033.93 1033.92 1033.86 1033.75 1033.59 1033.39 1033.15 1032.86 1032.52 1032.12 1031.67
1018.19 1018.76 1019.30 1019.84 1020.43 1021.10 1021.87 1022.74 1023.71 1024.74 1025.81 1026.87 1027.88 1028.81 1029.65 1030.37 1031.00 1031.53 1031.98 1032.37 1032.71 1033.02 1033.29 1033.52 1033.71 1033.85 1033.94 1033.97 1033.95 1033.88 1033.76 1033.60 1033.39 1033.15 1032.86 1032.52 1032.12 1031.67
1017.71 1018.32 1018.90 1019.47 1020.06 1020.72 1021.47 1022.31 1023.25 1024.26 1025.32 1026.39 1027.43 1028.41 1029.31 1030.10 1030.80 1031.40 1031.91 1032.36 1032.74 1033.07 1033.35 1033.58 1033.77 1033.90 1033.98 1034.00 1033.96 1033.88 1033.75 1033.58 1033.36 1033.11 1032.81 1032.47 1032.07 1031.62
1017.33 1017.99 1018.61 1019.21 1019.83 1020.48 1021.21 1022.02 1022.92 1023.89 1024.91 1025.96 1026.99 1027.99 1028.91 1029.75 1030.51 1031.17 1031.74 1032.24 1032.67 1033.03 1033.34 1033.59 1033.79 1033.92 1034.00 1034.01 1033.97 1033.87 1033.73 1033.54 1033.31 1033.05 1032.73 1032.38 1031.98 1031.54
1017.09 1017.78 1018.44 1019.08 1019.72 1020.38 1021.09 1021.87 1022.72 1023.64 1024.60 1025.61 1026.61 1027.59 1028.53 1029.39 1030.18 1030.89 1031.52 1032.07 1032.55 1032.95 1033.30 1033.58 1033.79 1033.93 1034.01 1034.02 1033.97 1033.86 1033.70 1033.49 1033.24 1032.96 1032.63 1032.27 1031.87 1031.43
1016.99 1017.71 1018.41 1019.08 1019.74 1020.41 1021.11 1021.86 1022.67 1023.53 1024.44 1025.39 1026.35 1027.30 1028.22 1029.09 1029.90 1030.64 1031.31 1031.91 1032.43 1032.88 1033.26 1033.56 1033.79 1033.95 1034.03 1034.04 1033.97 1033.85 1033.67 1033.44 1033.17 1032.85 1032.51 1032.14 1031.73 1031.30
1017.06 1017.80 1018.52 1019.22 1019.90 1020.59 1021.29 1022.02 1022.79 1023.60 1024.46 1025.35 1026.26 1027.17 1028.07 1028.93 1029.75 1030.50 1031.20 1031.82 1032.37 1032.85 1033.25 1033.58 1033.82 1033.98 1034.06 1034.06 1033.98 1033.84 1033.64 1033.38 1033.08 1032.75 1032.39 1032.00 1031.59 1031.15
1017.29 1018.04 1018.78 1019.50 1020.21 1020.91 1021.62 1022.34 1023.08 1023.86 1024.67 1025.52 1026.38 1027.25 1028.12 1028.96 1029.76 1030.52 1031.22 1031.85 1032.41 1032.90 1033.31 1033.64 1033.88 1034.04 1034.11 1034.09 1034.00 1033.84 1033.61 1033.33 1033.01 1032.65 1032.27 1031.86 1031.44 1031.00
1017.66 1018.42 1019.18 1019.92 1020.66 1021.38 1022.09 1022.81 1023.55 1024.30 1025.08 1025.89 1026.71 1027.54 1028.37 1029.18 1029.96 1030.70 1031.39 1032.01 1032.56 1033.04 1033.44 1033.75 1033.98 1034.12 1034.17 1034.14 1034.03 1033.84 1033.59 1033.29 1032.94 1032.56 1032.16 1031.74 1031.30 1030.85
1018.15 1018.92 1019.70 1020.47 1021.23 1021.97 1022.71 1023.43 1024.16 1024.90 1025.66 1026.44 1027.22 1028.02 1028.81 1029.59 1030.33 1031.04 1031.69 1032.28 1032.81 1033.25 1033.62 1033.91 1034.11 1034.22 1034.25 1034.19 1034.06 1033.85 1033.58 1033.25 1032.89 1032.49 1032.06 1031.62 1031.16 1030.69
1018.72 1019.51 1020.31 1021.11 1021.90 1022.67 1023.42 1024.16 1024.89 1025.62 1026.36 1027.11 1027.87 1028.63 1029.38 1030.11 1030.82 1031.48 1032.08 1032.63 1033.11 1033.51 1033.84 1034.09 1034.25 1034.33 1034.33 1034.25 1034.09 1033.86 1033.57 1033.22 1032.83 1032.41 1031.96 1031.50 1031.01 1030.51
1019.33 1020.15 1020.98 1021.80 1022.62 1023.41 1024.18 1024.93 1025.67 1026.40 1027.13 1027.86 1028.59 1029.31 1030.01 1030.70 1031.35 1031.96 1032.52 1033.01 1033.44 1033.79 1034.07 1034.28 1034.40 1034.45 1034.42 1034.31 1034.12 1033.87 1033.55 1033.18 1032.77 1032.32 1031.85 1031.35 1030.83 1030.30
1019.94 1020.79 1021.65 1022.50 1023.34 1024.15 1024.94 1025.70 1026.45 1027.17 1027.89 1028.59 1029.29 1029.97 1030.64 1031.28 1031.88 1032.44 1032.94 1033.38 1033.75 1034.06 1034.29 1034.45 1034.54 1034.55 1034.49 1034.35 1034.14 1033.86 1033.52 1033.12 1032.68 1032.20 1031.69 1031.15 1030.60 1030.03
1020.53 1021.41 1022.29 1023.17 1024.03 1024.85 1025.65 1026.42 1027.16 1027.88 1028.58 1029.27 1029.93 1030.58 1031.20 1031.80 1032.35 1032.85 1033.30 1033.70 1034.03 1034.29 1034.48 1034.60 1034.66 1034.64 1034.54 1034.37 1034.13 1033.82 1033.45 1033.02 1032.54 1032.02 1031.47 1030.89 1030.30 1029.69
1021.10 1021.99 1022.89 1023.77 1024.64 1025.48 1026.28 1027.05 1027.78 1028.49 1029.17 1029.84 1030.47 1031.08 1031.67 1032.22 1032.72 1033.19 1033.60 1033.95 1034.24 1034.47 1034.63 1034.72 1034.75 1034.70 1034.57 1034.37 1034.10 1033.75 1033.34 1032.87 1032.34 1031.78 1031.18 1030.56 1029.93 1029.28
1021.64 1022.54 1023.43 1024.32 1025.18 1026.01 1026.80 1027.56 1028.29 1028.99 1029.65 1030.29 1030.90 1031.48 1032.03 1032.54 1033.01 1033.44 1033.82 1034.14 1034.41 1034.61 1034.74 1034.81 1034.81 1034.73 1034.58 1034.34 1034.03 1033.64 1033.19 1032.67 1032.10 1031.49 1030.84 1030.18 1029.50 1028.81
1022.18 1023.06 1023.93 1024.80 1025.65 1026.46 1027.24 1027.99 1028.70 1029.38 1030.02 1030.64 1031.22 1031.77 1032.29 1032.78 1033.22 1033.62 1033.98 1034.28 1034.52 1034.71 1034.83 1034.87 1034.85 1034.74 1034.56 1034.29 1033.94 1033.51 1033.01 1032.44 1031.82 1031.17 1030.48 1029.77 1029.05 1028.32
1022.72 1023.57 1024.42 1025.25 1026.07 1026.86 1027.61 1028.34 1029.03 1029.69 1030.31 1030.91 1031.47 1032.00 1032.49 1032.95 1033.38 1033.76 1034.09 1034.38 1034.61 1034.77 1034.88 1034.91 1034.86 1034.73 1034.52 1034.21 1033.82 1033.35 1032.81 1032.20 1031.54 1030.84 1030.12 1029.37 1028.63 1027.87
1023.30 1024.11 1024.91 1025.70 1026.48 1027.23 1027.95 1028.65 1029.31 1029.95 1030.55 1031.12 1031.66 1032.17 1032.65 1033.09 1033.49 1033.85 1034.17 1034.44 1034.66 1034.81 1034.90 1034.91 1034.84 1034.69 1034.44 1034.11 1033.69 1033.18 1032.60 1031.97 1031.28 1030.55 1029.81 1029.04 1028.28 1027.51
1023.91 1024.66 1025.42 1026.16 1026.88 1027.59 1028.28 1028.94 1029.58 1030.18 1030.76 1031.31 1031.83 1032.32 1032.77 1033.19 1033.58 1033.92 1034.22 1034.48 1034.68 1034.81 1034.88 1034.87 1034.78 1034.60 1034.33 1033.97 1033.53 1033.00 1032.41 1031.75 1031.05 1030.32 1029.56 1028.80 1028.03 1027.26
Thickness
5578 5578 5577 5577 5577 5577 5577 5576 5573 5570 5568 5566 5565 5566 5566 5566 5567 5567 5567 5567 5566 5566 5565 5564 5562 5561 5560 5559 5557 5556 5555 5553 5552 5550 5549 5547 5546 5544
5570 5570 5569 5569 5568 5568 5568 5568 5568 5566 5562 5559 5557 5557 5557 5558 5558 5558 5558 5558 5557 5556 5555 5555 5553 5552 5551 5550 5549 5547 5546 5545 5543 5542 5540 5538 5536 5535
5561 5561 5561 5561 5560 5560 5560 5559 5558 5557 5554 5551 5549 5548 5549 5548 5548 5549 5548 5548 5547 5547 5546 5545 5544 5543 5542 5541 5539 5538 5537 5535 5534 5532 5531 5529 5527 5526
5552 5552 5552 5553 5552 5551 5551 5550 5549 5548 5546 5544 5540 5539 5539 5538 5538 5538 5538 5538 5537 5536 5536 5535 5535 5533 5532 5531 5530 5529 5527 5526 5524 5523 5521 5519 5517 5516
5543 5543 5544 5543 5543 5543 5542 5542 5540 5539 5538 5536 5533 5530 5529 5528 5528 5528 5528 5527 5526 5526 5526 5525 5524 5523 5522 5521 5520 5518 5517 5516 5514 5513 5511 5509 5508 5506
5533 5534 5534 5534 5534 5534 5533 5532 5531 5529 5527 5526 5523 5521 5519 5518 5517 5517 5517 5516 5515 5515 5514 5513 5512 5511 5511 5510 5509 5508 5507 5505 5504 5502 5501 5499 5498 5496
5522 5523 5524 5524 5525 5524 5524 5522 5521 5519 5516 5515 5513 5511 5509 5507 5506 5506 5505 5504 5504 5503 5502 5501 5500 5500 5499 5498 5498 5497 5496 5495 5493 5492 5490 5489 5487 5486
5511 5511 5512 5513 5513 5513 5513 5512 5511 5509 5507 5505 5503 5501 5500 5498 5496 5495 5493 5492 5492 5491 5489 5488 5488 5487 5487 5487 5486 5485 5485 5484 5482 5481 5480 5478 5477 5476
5500 5499 5500 5500 5501 5500 5500 5499 5498 5498 5498 5496 5494 5491 5489 5488 5487 5484 5482 5481 5479 5478 5476 5476 5476 5476 5476 5476 5475 5475 5474 5472 5471 5470 5469 5467 5466 5465
5487 5488 5488 5487 5488 5488 5487 5485 5485 5485 5484 5484 5483 5482 5480 5478 5476 5475 5473 5470 5468 5466 5464 5463 5464 5464 5466 5465 5464 5464 5463 5461 5460 5459 5457 5456 5455 5453
5474 5475 5475 5475 5476 5476 5475 5474 5472 5471 5471 5471 5471 5469 5468 5467 5465 5462 5460 5458 5457 5456 5453 5452 5453 5453 5454 5455 5455 5453 5452 5450 5449 5447 5445 5444 5442 5441
5461 5461 5462 5463 5463 5463 5462 5461 5460 5459 5458 5457 5457 5456 5455 5454 5452 5450 5449 5447 5445 5444 5442 5440 5439 5438 5441 5444 5443 5442 5441 5439 5437 5435 5433 5432 5430 5428
5449 5449 5450 5450 5451 5450 5449 5449 5449 5447 5445 5444 5443 5442 5441 5440 5439 5438 5436 5435 5433 5432 5431 5428 5427 5425 5424 5428 5431 5430 5428 5427 5425 5423 5421 5419 5417 5415
5437 5437 5437 5438 5437 5437 5436 5437 5436 5434 5433 5431 5430 5429 5428 5427 5426 5425 5424 5422 5422 5421 5419 5417 5415 5413 5411 5412 5415 5417 5415 5413 5412 5410 5409 5407 5404 5402
5424 5424 5424 5424 5424 5423 5423 5423 5422 5421 5420 5418 5417 5416 5416 5415 5414 5412 5411 5410 5409 5408 5407 5405 5403 5401 5399 5399 5400 5401 5400 5401 5399 5397 5396 5394 5391 5390
5410 5410 5410 5410 5409 5409 5409 5408 5408 5408 5407 5406 5405 5404 5403 5402 5401 5400 5398 5397 5396 5395 5394 5392 5391 5389 5387 5387 5386 5387 5385 5384 5386 5383 5382 5382 5379 5377
5396 5395 5395 5395 5394 5394 5394 5394 5394 5394 5394 5393 5392 5392 5390 5389 5388 5386 5385 5384 5382 5381 5380 5379 5378 5376 5375 5374 5374 5374 5373 5372 5371 5370 5370 5370 5370 5366
5383 5382 5381 5381 5381 5381 5381 5381 5381 5381 5380 5380 5379 5378 5377 5376 5375 5373 5371 5370 5369 5368 5366 5365 5363 5362 5362 5363 5362 5361 5360 5359 5358 5357 5356 5356 5359 5357
5370 5369 5368 5368 5369 5369 5369 5368 5368 5368 5368 5367 5366 5365 5364 5363 5362 5360 5358 5356 5355 5354 5353 5350 5347 5345 5346 5350 5352 5348 5346 5347 5346 5345 5344 5343 5344 5346
5356 5356 5356 5356 5356 5356 5356 5356 5356 5355 5355 5354 5353 5352 5351 5350 5348 5347 5345 5343 5342 5341 5339 5337 5334 5332 5332 5333 5336 5336 5333 5332 5332 5333 5333 5333 5334 5334
5342 5343 5343 5344 5344 5344 5344 5344 5344 5343 5342 5341 5341 5340 5338 5337 5336 5335 5333 5332 5330 5328 5327 5326 5324 5322 5320 5318 5319 5323 5323 5320 5319 5319 5320 5320 5322 5323
5330 5331 5331 5332 5332 5332 5332 5332 5331 5331 5330 5329 5329 5328 5327 5325 5324 5323 5321 5320 5318 5317 5316 5315 5312 5309 5306 5305 5306 5309 5310 5310 5308 5307 5307 5307 5306 5309
5319 5320 5320 5321 5321 5321 5321 5320 5320 5319 5319 5318 5317 5316 5314 5313 5312 5311 5310 5308 5307 5305 5304 5302 5300 5297 5295 5294 5293 5295 5295 5297 5297 5298 5298 5297 5297 5297